Regional Weather Roundup
Issued by NWS

Home | Current Version | Previous Version | Graphics & Text | Print | Product List | Glossary On
Versions: 1 2 3 4 5 6 7 8 9 10 11 12 13 14 15 16 17 18 19 20 21 22 23 24 25 26 27 28 29 30 31 32 33 34 35 36 37 38 39 40 41 42 43 44 45 46 47 48 49 50
000
ASUS43 KLMK 271210
RWRKY
NATIONAL WEATHER SERVICE LOUISVILLE KY
700 AM EST THU NOV 27 2014

NOTE "FAIR" INDICATES FEW OR NO CLOUDS BELOW 12,000 FEET
WITH NO SIGNIFICANT WEATHER AND/OR OBSTRUCTIONS TO VISIBILITY.

KYZ001>023-026-027-061>063-070>075-271300-
WESTERN AND SOUTH CENTRAL KENTUCKY

CITY           SKY/WX    TMP DP  RH WIND       PRES   REMARKS
PADUCAH        CLOUDY    35  32  88 NW10      30.35R WCI  27
HENDERSON      CLOUDY    30  27  86 NW8       30.32R WCI  23
OWENSBORO      CLOUDY    32  29  89 N14       30.30R WCI  22
HOPKINSVILLE   CLOUDY    34  34 100 NW12      30.31R WCI  25
BOWLING GREEN  CLOUDY    35  31  85 NW7       30.26R WCI  29
GLASGOW        CLOUDY    33  33  98 NW5       30.23R WCI  29
$$

KYZ024-025-028>034-038-045-046-053-271300-
NORTH CENTRAL KENTUCKY

CITY           SKY/WX    TMP DP  RH WIND       PRES   REMARKS
LOUISVILLE/SDF CLOUDY    31  26  82 NW7       30.24R WCI  24
LOUISVILLE/LOU CLOUDY    30  26  85 NW7       30.24R WCI  23
FORT KNOX      CLOUDY    30  27  86 W8        30.23R WCI  23
$$

KYZ035>037-039>044-047>052-055>060-089>105-271300-
NORTHEAST KENTUCKY

CITY           SKY/WX    TMP DP  RH WIND       PRES   REMARKS
LEXINGTON      CLOUDY    29  26  89 NW7       30.18R WCI  22
COVINGTON      CLOUDY    29  21  72 NW8       30.17R WCI  21
FRANKFORT      CLOUDY    29  24  82 NW6       30.19R WCI  23
$$

KYZ054-064>069-076>088-106>120-271300-
SOUTHEAST KENTUCKY

CITY           SKY/WX    TMP DP  RH WIND       PRES   REMARKS
JACKSON        LGT SNOW  31  28  89 VRB5      30.10R FOG     WCI  26
LONDON         LGT SNOW  34  31  88 NW7       30.13R FOG     WCI  28
SOMERSET       CLOUDY    32  32 100 N7        30.18R WCI  26
MIDDLESBORO    NOT AVBL
MONTICELLO     FLURRIES  34  33  96 NW10      30.20R WCI  26
$$




USA.gov is the U.S. government's official web portal to all federal, state and local government web resources and services.